sat.trackr.live / text

‹ back to catalog

STARLINK-37307

NORAD 68681 · 2026-077V

PAYLOAD ACTIVE UNKNOWN

§ Identity

Operator
Country
US
Launch date
2026-04-11
Launch site
AFWTR
Launch vehicle
Mass (kg)
RCS (m²)

Purposes: comms

External: N2YO · Heavens-Above · Gunter

§ Orbital elements

Epoch: 2026-09-19T21:33:44.772768Z

Period
93.91 min
Inclination
97.2878°
Eccentricity
0.0001230
Mean motion
15.33449647 rev/d
Perigee alt
464.7 km
Apogee alt
466.4 km
Semi-major
6,843.7 km
B*
3.2687e-4
RAAN
132.8474°
Arg perigee
84.9537°
Mean anomaly
275.1846°
Rev number
2,492

§ Raw data

STARLINK-373071 68681U 26077V   26262.89843487  .00010494  00000+0  32687-3 0  99962 68681  97.2878 132.8474 0001230  84.9537 275.1846 15.33449647 24929

JSON: /api/v1/satellites/68681 · /tle

For live sub-satellite position, see the globe view (requires WebGL).

§ Visibility from observer

Set your observer location to see the next 7 days of passes ≥ 10°. The values pass through the URL so the page stays shareable.

No JS? Fill the form by hand. The geolocation button needs JavaScript.